TimeEST,TemperatureF,Dew PointF,Humidity,Sea Level PressureIn,VisibilityMPH,Wind Direction,Wind SpeedMPH,Gust SpeedMPH,PrecipitationIn,Events,Conditions,WindDirDegrees,DateUTC
12:54 AM,33.1,28.0,82,30.08,10.0,NNE,4.6,-,N/A,,Clear,30,2012-12-28 05:54:00
1:54 AM,32.0,28.0,85,30.08,10.0,Calm,Calm,-,N/A,,Clear,0,2012-12-28 06:54:00
2:54 AM,30.9,28.0,89,30.10,10.0,Calm,Calm,-,N/A,,Clear,0,2012-12-28 07:54:00
3:54 AM,28.9,27.0,92,30.11,8.0,Calm,Calm,-,N/A,,Clear,0,2012-12-28 08:54:00
4:54 AM,28.9,27.0,92,30.11,8.0,Calm,Calm,-,N/A,,Clear,0,2012-12-28 09:54:00
5:54 AM,28.9,27.0,92,30.12,9.0,Calm,Calm,-,N/A,,Clear,0,2012-12-28 10:54:00
6:54 AM,28.0,27.0,96,30.13,-9999.0,Calm,Calm,-,N/A,,Unknown,0,2012-12-28 11:54:00
7:54 AM,28.9,27.0,92,30.16,-9999.0,Calm,Calm,-,N/A,,Unknown,0,2012-12-28 12:54:00
8:54 AM,33.1,28.9,85,30.16,9.0,NE,3.5,-,N/A,,Clear,50,2012-12-28 13:54:00
9:54 AM,35.1,28.0,76,30.18,10.0,Calm,Calm,-,N/A,,Clear,0,2012-12-28 14:54:00
10:54 AM,37.9,28.9,70,30.17,10.0,North,-9999.0,-,N/A,,Unknown,0,2012-12-28 15:54:00
11:54 AM,39.9,28.0,63,30.15,10.0,Variable,3.5,-,N/A,,Mostly Cloudy,0,2012-12-28 16:54:00
12:54 PM,39.9,28.0,63,30.12,10.0,Calm,Calm,-,N/A,,Overcast,0,2012-12-28 17:54:00
1:54 PM,41.0,28.0,60,30.09,10.0,Calm,Calm,-,N/A,,Overcast,0,2012-12-28 18:54:00
2:54 PM,43.0,28.9,58,30.06,10.0,ESE,5.8,-,N/A,,Clear,110,2012-12-28 19:54:00
3:54 PM,43.0,28.9,58,30.05,10.0,ENE,3.5,-,N/A,,Clear,70,2012-12-28 20:54:00
4:54 PM,42.1,30.0,62,30.04,10.0,SSE,3.5,-,N/A,,Clear,150,2012-12-28 21:54:00
5:54 PM,41.0,30.0,65,30.05,10.0,Calm,Calm,-,N/A,,Clear,0,2012-12-28 22:54:00
6:54 PM,39.0,30.9,73,30.05,10.0,Calm,Calm,-,N/A,,Clear,0,2012-12-28 23:54:00
7:54 PM,35.1,30.9,85,30.06,9.0,Calm,Calm,-,N/A,,Clear,0,2012-12-29 00:54:00
8:54 PM,37.0,32.0,82,30.04,10.0,Calm,Calm,-,N/A,,Clear,0,2012-12-29 01:54:00
9:54 PM,37.9,32.0,79,30.02,10.0,Calm,Calm,-,N/A,,Clear,0,2012-12-29 02:54:00
10:54 PM,39.0,32.0,76,30.01,10.0,North,3.5,-,N/A,,Mostly Cloudy,360,2012-12-29 03:54:00
11:54 PM,39.0,32.0,76,29.99,9.0,NE,3.5,-,N/A,,Overcast,50,2012-12-29 04:54:00